This is the latest recevied weather packets stored in our database for station/object K8WEH. If no packets are shown the sender has not sent any weather packets the latest 1 day(s).
| Time | Temp. | Humidity | Pressure | Rain* | Wind** | Luminosity | Snow |
|---|---|---|---|---|---|---|---|
| 1778012704 | 21.11° C | 57% | 1009.4 hPa | 0 mm | 0.89 m/s, 188° | - | - |
| 1778012404 | 21.11° C | 58% | 1009.4 hPa | 0 mm | 0.45 m/s, 220° | - | - |
| 1778012103 | 21.11° C | 59% | 1009.5 hPa | 0 mm | 0.45 m/s, 293° | - | - |
| 1778011803 | 21.67° C | 57% | 1009.7 hPa | 0 mm | 0.89 m/s, 259° | - | - |
| 1778011503 | 21.67° C | 57% | 1009.6 hPa | 0 mm | 0.45 m/s, 149° | - | - |
| 1778011204 | 21.67° C | 55% | 1009.7 hPa | 0 mm | 0.89 m/s, 267° | - | - |
| 1778010903 | 21.67° C | 57% | 1009.9 hPa | 0 mm | 0.89 m/s, 140° | - | - |
| 1778010601 | 21.67° C | 58% | 1010 hPa | 0 mm | 0.45 m/s, 134° | - | - |
| 1778010302 | 21.67° C | 58% | 1010.1 hPa | 0 mm | 0.45 m/s, 193° | - | - |
| 1778010060 | 21.11° C | 59% | 1010.1 hPa | 0 mm | 0.45 m/s, 227° | - | - |
| 1778009762 | 21.11° C | 59% | 1010.2 hPa | 0 mm | 0.45 m/s, 225° | - | - |
| 1778009460 | 21.11° C | 58% | 1010.3 hPa | 0 mm | 0.89 m/s, 169° | - | - |
| 1778009159 | 21.11° C | 61% | 1010.4 hPa | 0 mm | 0.45 m/s, 212° | - | - |
| 1778008860 | 21.11° C | 61% | 1010.5 hPa | 0 mm | 0 m/s | - | - |
| 1778008567 | 21.11° C | 61% | 1010.7 hPa | 0 mm | 0.45 m/s, 338° | - | - |
| 1778008261 | 21.11° C | 62% | 1010.8 hPa | 0 mm | 0 m/s | - | - |
| 1778007958 | 20.56° C | 60% | 1010.7 hPa | 0 mm | 0.45 m/s, 26° | - | - |
| 1778007664 | 20.56° C | 60% | 1010.9 hPa | 0 mm | 0.45 m/s, 180° | - | - |
| 1778007357 | 20.56° C | 60% | 1010.9 hPa | 0 mm | 0.45 m/s, 261° | - | - |
| 1778007057 | 20.56° C | 60% | 1011 hPa | 0 mm | 0.89 m/s, 200° | - | - |
| 1778006763 | 20.56° C | 60% | 1011 hPa | 0 mm | 1.34 m/s, 99° | - | - |
| 1778006457 | 20.56° C | 62% | 1011 hPa | 0 mm | 0.45 m/s, 37° | - | - |
| 1778006156 | 20.56° C | 61% | 1011.1 hPa | 0 mm | 0.45 m/s, 252° | - | - |
| 1778005889 | 20.56° C | 63% | 1011.1 hPa | 0 mm | 0.45 m/s, 126° | - | - |
| 1778005556 | 20.56° C | 60% | 1011.2 hPa | 0 mm | 0.45 m/s, 204° | - | - |
* Rain latest hour (hover to see other rain measurements)
** Current wind speed in m/s (hover to see current wind gust speed)